Location: LDNL
(36.4545°S, 141.6685°E)
Time: 17:23:02
(UTC+10:00)

Courier 1B - Pass Details

Date: 12 August 2022
Orbit: 962 x 1209 km, 28.3° (Epoch: 25 September)

Event Time Altitude Azimuth Distance (km) Brightness Sun altitude
Exits shadow 03:33:11 15° 50° (NE) 2,741 10.0 -45.8°
Drops below altitude 10° 03:34:23 10° 55° (NE) 3,093 10.4 -45.5°
Sets 03:37:20 0° 62° (ENE) 4,025 11.2 -45.0°
